User: anonymous   Login
Location: Feydey
(46.3431°N, 7.0106°E)
Time: 02:50:26
(UTC+00:00)
Language:

H-2A R/B - Orbit

View from above orbital plane
View from above orbital plane
View from above satellite
View from above satellite

Ground track
Ground track

The orbit data is extracted from the following two-line orbital elements,

1 39771U 14029F   21270.43797858  .00000850  00000-0  85420-4 0  9992
2 39771  98.1579 156.1980 0017502 145.4333 214.8027 14.94012939400163
Epoch (UTC): 27 September 2021 10:30:41
Eccentricity: 0.0017502
inclination: 98.1579°
perigee height: 573 km
apogee height: 597 km
right ascension of ascending node: 156.1980°
argument of perigee: 145.4333°
revolutions per day: 14.94012939
mean anomaly at epoch: 214.8027°
orbit number at epoch: 40016

The dashed part of the orbit path shows where the satellite is in the earth's shadow,  

DLR